Time,TemperatureF,DewpointF,PressureIn,WindDirection,WindDirectionDegrees,WindSpeedMPH,WindSpeedGustMPH,Humidity,HourlyPrecipIn,Conditions,Clouds,dailyrainin,SoftwareType,DateUTC
2013-01-23 00:03:00,43.0,36.6,30.04,SE,135,0.7,1.1,78,0.00,,,0.00,WUHU216HW,2013-01-23 08:03:00,
2013-01-23 00:08:00,43.0,36.6,30.03,ESE,113,1.1,1.8,78,0.00,,,0.00,WUHU216HW,2013-01-23 08:08:00,
2013-01-23 00:13:00,43.0,36.6,30.02,ESE,113,0.0,1.8,78,0.00,,,0.00,WUHU216HW,2013-01-23 08:13:00,
2013-01-23 00:18:00,43.0,37.3,30.02,NE,45,2.5,2.5,80,0.00,,,0.00,WUHU216HW,2013-01-23 08:18:00,
2013-01-23 00:23:00,43.2,37.1,30.02,ESE,113,1.8,2.5,79,0.00,,,0.00,WUHU216HW,2013-01-23 08:23:00,
2013-01-23 00:28:00,43.2,37.1,30.03,SSE,158,0.7,1.8,79,0.00,,,0.00,WUHU216HW,2013-01-23 08:28:00,
2013-01-23 00:33:00,43.2,37.1,30.02,SE,135,0.4,1.1,79,0.00,,,0.00,WUHU216HW,2013-01-23 08:33:00,
2013-01-23 00:38:00,43.2,37.1,30.02,East,90,0.4,1.3,79,0.00,,,0.00,WUHU216HW,2013-01-23 08:38:00,
2013-01-23 00:43:00,43.2,37.1,30.03,SSE,158,1.1,2.2,79,0.00,,,0.00,WUHU216HW,2013-01-23 08:43:00,
2013-01-23 00:48:00,43.4,37.3,30.02,ESE,113,1.8,2.2,79,0.00,,,0.00,WUHU216HW,2013-01-23 08:48:00,
2013-01-23 00:53:00,43.4,37.3,30.02,ESE,113,0.7,1.8,79,0.00,,,0.00,WUHU216HW,2013-01-23 08:53:00,
2013-01-23 00:58:00,43.4,37.3,30.02,ESE,113,0.4,1.6,79,0.00,,,0.00,WUHU216HW,2013-01-23 08:58:00,
2013-01-23 01:03:00,43.6,37.4,30.02,ESE,113,0.0,1.3,79,0.00,,,0.00,WUHU216HW,2013-01-23 09:03:00,
2013-01-23 01:08:00,43.6,37.4,30.02,ESE,113,0.0,0.7,79,0.00,,,0.00,WUHU216HW,2013-01-23 09:08:00,
2013-01-23 01:13:00,43.6,37.4,30.02,ESE,113,0.0,0.0,79,0.00,,,0.00,WUHU216HW,2013-01-23 09:13:00,
2013-01-23 01:18:00,43.6,37.2,30.02,ESE,113,0.0,1.1,78,0.00,,,0.00,WUHU216HW,2013-01-23 09:18:00,
2013-01-23 01:23:00,43.6,37.2,30.02,ESE,113,0.0,1.1,78,0.00,,,0.00,WUHU216HW,2013-01-23 09:23:00,
2013-01-23 01:28:00,43.7,37.4,30.02,North,0,1.6,2.0,78,0.00,,,0.00,WUHU216HW,2013-01-23 09:28:00,
2013-01-23 01:33:00,43.7,37.6,30.02,NE,45,1.8,2.0,79,0.00,,,0.00,WUHU216HW,2013-01-23 09:33:00,
2013-01-23 01:38:00,43.7,37.6,30.02,East,90,1.8,1.8,79,0.00,,,0.00,WUHU216HW,2013-01-23 09:38:00,
2013-01-23 01:43:00,43.7,37.4,30.02,SSE,158,1.6,2.2,78,0.00,,,0.00,WUHU216HW,2013-01-23 09:43:00,
2013-01-23 01:48:00,43.9,37.5,30.01,ESE,113,1.1,2.2,78,0.00,,,0.00,WUHU216HW,2013-01-23 09:48:00,
2013-01-23 01:53:00,43.9,37.8,30.01,WNW,293,1.3,1.3,79,0.00,,,0.00,WUHU216HW,2013-01-23 09:53:00,
2013-01-23 01:58:00,44.1,38.0,30.00,NNW,338,0.0,1.3,79,0.00,,,0.00,WUHU216HW,2013-01-23 09:58:00,
2013-01-23 02:03:00,44.3,38.2,30.01,SW,225,0.4,2.2,79,0.00,,,0.00,WUHU216HW,2013-01-23 10:03:00,
2013-01-23 02:08:00,44.3,38.2,30.01,SSE,158,0.9,2.2,79,0.00,,,0.00,WUHU216HW,2013-01-23 10:08:00,
2013-01-23 02:13:00,44.3,37.8,30.01,SSE,158,0.0,1.1,78,0.00,,,0.00,WUHU216HW,2013-01-23 10:13:00,
2013-01-23 02:18:00,44.3,38.2,30.01,NNE,23,1.1,1.1,79,0.00,,,0.00,WUHU216HW,2013-01-23 10:18:00,
2013-01-23 02:23:00,44.3,38.2,30.00,NNE,23,0.4,1.8,79,0.00,,,0.00,WUHU216HW,2013-01-23 10:23:00,
2013-01-23 02:28:00,44.3,38.2,30.00,North,0,1.8,1.8,79,0.00,,,0.00,WUHU216HW,2013-01-23 10:28:00,
2013-01-23 02:33:00,44.5,38.3,30.00,NNE,23,1.3,1.8,79,0.00,,,0.00,WUHU216HW,2013-01-23 10:33:00,
2013-01-23 02:38:00,44.5,38.3,30.00,ESE,113,0.0,1.8,79,0.00,,,0.00,WUHU216HW,2013-01-23 10:38:00,
2013-01-23 02:43:00,44.5,38.3,30.00,SW,225,1.3,1.3,79,0.00,,,0.00,WUHU216HW,2013-01-23 10:43:00,
2013-01-23 02:48:00,44.5,38.3,30.00,SSE,158,1.3,1.3,79,0.00,,,0.00,WUHU216HW,2013-01-23 10:48:00,
2013-01-23 02:53:00,44.5,38.3,30.00,SSW,203,0.0,1.3,79,0.00,,,0.00,WUHU216HW,2013-01-23 10:53:00,
2013-01-23 02:58:00,44.5,38.3,30.01,SSW,203,0.0,1.1,79,0.00,,,0.00,WUHU216HW,2013-01-23 10:58:00,
2013-01-23 03:03:00,44.3,38.2,30.00,SSW,203,0.0,0.0,79,0.00,,,0.00,WUHU216HW,2013-01-23 11:03:00,
2013-01-23 03:08:00,44.3,38.2,29.99,SSW,203,0.0,0.0,79,0.00,,,0.00,WUHU216HW,2013-01-23 11:08:00,
2013-01-23 03:13:00,44.3,38.2,29.99,SSW,203,0.0,0.0,79,0.00,,,0.00,WUHU216HW,2013-01-23 11:13:00,
2013-01-23 03:18:00,44.1,38.0,29.99,SW,225,0.9,0.9,79,0.00,,,0.00,WUHU216HW,2013-01-23 11:18:00,
2013-01-23 03:23:00,43.9,37.8,29.99,NNE,23,1.6,1.6,79,0.00,,,0.00,WUHU216HW,2013-01-23 11:23:00,
2013-01-23 03:28:00,43.9,38.2,29.99,East,90,0.7,2.0,80,0.00,,,0.00,WUHU216HW,2013-01-23 11:28:00,
2013-01-23 03:33:00,43.9,38.2,29.99,East,90,1.1,2.0,80,0.00,,,0.00,WUHU216HW,2013-01-23 11:33:00,
2013-01-23 03:38:00,43.9,37.8,29.99,East,90,1.1,1.1,79,0.00,,,0.00,WUHU216HW,2013-01-23 11:38:00,
2013-01-23 03:43:00,43.7,38.0,29.99,ENE,68,0.4,1.8,80,0.00,,,0.00,WUHU216HW,2013-01-23 11:43:00,
2013-01-23 03:48:00,43.7,38.0,29.98,North,0,0.9,1.8,80,0.00,,,0.00,WUHU216HW,2013-01-23 11:48:00,
2013-01-23 03:53:00,43.7,38.0,29.98,SE,135,1.3,1.8,80,0.00,,,0.00,WUHU216HW,2013-01-23 11:53:00,
2013-01-23 03:58:00,43.7,38.0,29.99,South,180,2.9,2.9,80,0.00,,,0.00,WUHU216HW,2013-01-23 11:58:00,
2013-01-23 04:04:00,43.7,38.0,29.98,SSE,158,2.0,2.9,80,0.00,,,0.00,WUHU216HW,2013-01-23 12:04:00,
2013-01-23 04:08:00,43.7,38.3,29.98,SSE,158,1.3,2.0,81,0.00,,,0.00,WUHU216HW,2013-01-23 12:08:00,
2013-01-23 04:13:00,43.7,38.3,29.98,SE,135,1.1,1.8,81,0.00,,,0.00,WUHU216HW,2013-01-23 12:13:00,
2013-01-23 04:18:00,43.7,38.3,29.98,SE,135,0.0,1.1,81,0.00,,,0.00,WUHU216HW,2013-01-23 12:18:00,
2013-01-23 04:24:00,43.7,38.3,29.97,SE,135,0.2,1.1,81,0.00,,,0.00,WUHU216HW,2013-01-23 12:24:00,
2013-01-23 04:28:00,43.6,38.1,29.97,NE,45,0.0,0.4,81,0.00,,,0.00,WUHU216HW,2013-01-23 12:28:00,
2013-01-23 04:33:00,43.7,38.3,29.97,NW,315,0.2,1.1,81,0.00,,,0.00,WUHU216HW,2013-01-23 12:33:00,
2013-01-23 04:38:00,43.7,38.3,29.97,WSW,248,1.6,1.6,81,0.00,,,0.00,WUHU216HW,2013-01-23 12:38:00,
2013-01-23 04:43:00,43.7,38.3,29.98,ESE,113,0.4,1.6,81,0.00,,,0.00,WUHU216HW,2013-01-23 12:43:00,
2013-01-23 04:48:00,43.7,38.3,29.97,SW,225,0.0,1.6,81,0.00,,,0.00,WUHU216HW,2013-01-23 12:48:00,
2013-01-23 04:53:00,43.7,38.3,29.97,ENE,68,0.0,1.6,81,0.00,,,0.00,WUHU216HW,2013-01-23 12:53:00,
2013-01-23 04:59:00,43.6,38.1,29.97,ENE,68,0.0,0.7,81,0.00,,,0.00,WUHU216HW,2013-01-23 12:59:00,
2013-01-23 05:04:00,43.6,38.1,29.96,NW,315,0.4,1.8,81,0.00,,,0.00,WUHU216HW,2013-01-23 13:04:00,
2013-01-23 05:09:00,43.6,38.1,29.97,WSW,248,1.1,1.8,81,0.00,,,0.00,WUHU216HW,2013-01-23 13:09:00,
2013-01-23 05:14:00,43.6,38.1,29.97,WSW,248,1.1,1.1,81,0.00,,,0.00,WUHU216HW,2013-01-23 13:14:00,
2013-01-23 05:19:00,43.6,38.1,29.97,East,90,2.7,2.7,81,0.00,,,0.00,WUHU216HW,2013-01-23 13:19:00,
2013-01-23 05:24:00,43.4,37.9,29.96,East,90,2.5,2.7,81,0.00,,,0.00,WUHU216HW,2013-01-23 13:24:00,
2013-01-23 05:29:00,43.2,37.7,29.94,ENE,68,1.1,2.7,81,0.00,,,0.00,WUHU216HW,2013-01-23 13:29:00,
2013-01-23 05:34:00,43.2,37.7,29.94,East,90,1.1,2.5,81,0.00,,,0.00,WUHU216HW,2013-01-23 13:34:00,
2013-01-23 05:39:00,43.2,37.7,29.95,ESE,113,0.4,1.3,81,0.00,,,0.00,WUHU216HW,2013-01-23 13:39:00,
2013-01-23 05:44:00,43.2,37.7,29.96,ESE,113,1.1,1.3,81,0.00,,,0.00,WUHU216HW,2013-01-23 13:44:00,
2013-01-23 05:49:00,43.2,37.7,29.96,NE,45,0.0,1.1,81,0.00,,,0.00,WUHU216HW,2013-01-23 13:49:00,
2013-01-23 05:54:00,43.2,37.7,29.96,North,0,0.4,0.9,81,0.00,,,0.00,WUHU216HW,2013-01-23 13:54:00,
2013-01-23 05:59:00,43.4,37.9,29.96,SE,135,1.3,1.3,81,0.00,,,0.00,WUHU216HW,2013-01-23 13:59:00,
2013-01-23 06:04:00,43.4,37.9,29.95,SE,135,0.0,1.3,81,0.00,,,0.00,WUHU216HW,2013-01-23 14:04:00,
2013-01-23 06:09:00,43.4,37.9,29.96,SSW,203,1.1,1.1,81,0.00,,,0.00,WUHU216HW,2013-01-23 14:09:00,
2013-01-23 06:14:00,43.2,37.7,29.96,SW,225,2.9,2.9,81,0.00,,,0.00,WUHU216HW,2013-01-23 14:14:00,
2013-01-23 06:19:00,43.4,37.9,29.96,West,270,1.6,2.9,81,0.00,,,0.00,WUHU216HW,2013-01-23 14:19:00,
2013-01-23 06:24:00,43.4,38.3,29.97,SW,225,2.5,2.7,82,0.00,,,0.00,WUHU216HW,2013-01-23 14:24:00,
2013-01-23 06:29:00,43.4,38.3,29.98,WNW,293,2.5,3.4,82,0.00,,,0.00,WUHU216HW,2013-01-23 14:29:00,
2013-01-23 06:34:00,43.6,38.4,29.98,SSW,203,1.8,4.7,82,0.00,,,0.00,WUHU216HW,2013-01-23 14:34:00,
2013-01-23 06:39:00,43.6,38.4,29.97,WSW,248,1.1,4.7,82,0.00,,,0.00,WUHU216HW,2013-01-23 14:39:00,
2013-01-23 06:44:00,43.6,38.4,29.97,SSW,203,0.7,1.8,82,0.00,,,0.00,WUHU216HW,2013-01-23 14:44:00,
2013-01-23 06:49:00,43.6,38.4,29.98,SSW,203,2.5,2.5,82,0.00,,,0.00,WUHU216HW,2013-01-23 14:49:00,
2013-01-23 06:54:00,43.6,38.4,29.97,NW,315,0.0,2.5,82,0.00,,,0.00,WUHU216HW,2013-01-23 14:54:00,
2013-01-23 06:59:00,43.6,38.4,29.98,WSW,248,1.3,1.6,82,0.00,,,0.00,WUHU216HW,2013-01-23 14:59:00,
2013-01-23 07:04:00,43.6,38.4,29.99,SW,225,0.4,1.3,82,0.00,,,0.00,WUHU216HW,2013-01-23 15:04:00,
2013-01-23 07:09:00,43.6,38.4,29.98,SW,225,0.0,1.1,82,0.00,,,0.00,WUHU216HW,2013-01-23 15:09:00,
2013-01-23 07:14:00,43.6,38.4,29.98,ESE,113,0.9,0.9,82,0.00,,,0.00,WUHU216HW,2013-01-23 15:14:00,
2013-01-23 07:19:00,43.6,38.4,29.98,East,90,0.7,1.8,82,0.00,,,0.00,WUHU216HW,2013-01-23 15:19:00,
2013-01-23 07:24:00,43.6,38.4,29.98,SE,135,2.2,2.2,82,0.00,,,0.00,WUHU216HW,2013-01-23 15:24:00,
2013-01-23 07:29:00,43.4,38.3,29.98,ESE,113,1.3,2.2,82,0.00,,,0.00,WUHU216HW,2013-01-23 15:29:00,
2013-01-23 07:34:00,43.2,38.1,29.97,ESE,113,1.1,3.1,82,0.00,,,0.00,WUHU216HW,2013-01-23 15:34:00,
2013-01-23 07:39:00,43.4,38.3,29.98,ESE,113,3.1,3.1,82,0.00,,,0.00,WUHU216HW,2013-01-23 15:39:00,
2013-01-23 07:44:00,43.2,38.3,29.98,ESE,113,1.1,3.1,83,0.00,,,0.00,WUHU216HW,2013-01-23 15:44:00,
2013-01-23 07:49:00,43.4,38.5,29.97,ESE,113,1.1,2.0,83,0.00,,,0.00,WUHU216HW,2013-01-23 15:49:00,
2013-01-23 07:54:00,43.4,38.5,29.97,SSE,158,1.3,1.3,83,0.00,,,0.00,WUHU216HW,2013-01-23 15:54:00,
2013-01-23 07:59:00,43.6,38.7,29.99,SW,225,1.1,2.0,83,0.00,,,0.00,WUHU216HW,2013-01-23 15:59:00,
2013-01-23 08:04:00,43.7,38.9,29.99,SE,135,0.4,2.0,83,0.00,,,0.00,WUHU216HW,2013-01-23 16:04:00,
2013-01-23 08:09:00,43.7,38.9,30.00,SW,225,1.1,1.1,83,0.00,,,0.00,WUHU216HW,2013-01-23 16:09:00,
2013-01-23 08:14:00,43.9,39.1,30.00,SW,225,1.6,2.0,83,0.00,,,0.00,WUHU216HW,2013-01-23 16:14:00,
2013-01-23 08:19:00,43.9,39.1,30.00,West,270,0.7,2.0,83,0.00,,,0.00,WUHU216HW,2013-01-23 16:19:00,
2013-01-23 08:24:00,44.3,39.8,30.00,NE,45,0.9,0.9,84,0.00,,,0.00,WUHU216HW,2013-01-23 16:24:00,
2013-01-23 08:29:00,44.3,39.8,30.00,ENE,68,1.1,1.8,84,0.00,,,0.00,WUHU216HW,2013-01-23 16:29:00,
2013-01-23 08:34:00,44.5,40.0,30.00,ENE,68,1.8,1.8,84,0.00,,,0.00,WUHU216HW,2013-01-23 16:34:00,
2013-01-23 08:39:00,44.6,39.8,30.00,NNE,23,0.0,1.8,83,0.00,,,0.00,WUHU216HW,2013-01-23 16:39:00,
2013-01-23 08:44:00,44.8,40.0,30.00,SE,135,1.1,1.1,83,0.00,,,0.00,WUHU216HW,2013-01-23 16:44:00,
2013-01-23 08:49:00,45.0,40.1,30.00,ESE,113,0.7,1.1,83,0.00,,,0.00,WUHU216HW,2013-01-23 16:49:00,
2013-01-23 08:54:00,45.0,40.1,30.00,NE,45,0.0,0.7,83,0.00,,,0.00,WUHU216HW,2013-01-23 16:54:00,
2013-01-23 08:59:00,45.2,40.3,30.00,ENE,68,1.1,1.6,83,0.00,,,0.00,WUHU216HW,2013-01-23 16:59:00,
2013-01-23 09:04:00,45.4,40.5,30.01,ESE,113,0.9,1.6,83,0.00,,,0.00,WUHU216HW,2013-01-23 17:04:00,
2013-01-23 09:09:00,45.5,40.7,30.01,ENE,68,0.0,1.6,83,0.00,,,0.00,WUHU216HW,2013-01-23 17:09:00,
2013-01-23 09:14:00,45.7,40.9,30.02,WSW,248,0.0,1.6,83,0.00,,,0.00,WUHU216HW,2013-01-23 17:14:00,
2013-01-23 09:19:00,45.9,41.0,30.01,WSW,248,0.0,1.6,83,0.00,,,0.00,WUHU216HW,2013-01-23 17:19:00,
2013-01-23 09:24:00,46.1,41.2,30.01,NE,45,1.3,2.2,83,0.00,,,0.00,WUHU216HW,2013-01-23 17:24:00,
2013-01-23 09:29:00,46.4,41.6,30.01,SE,135,1.1,2.9,83,0.00,,,0.00,WUHU216HW,2013-01-23 17:29:00,
2013-01-23 09:34:00,46.4,41.6,30.02,SE,135,0.4,2.9,83,0.00,,,0.00,WUHU216HW,2013-01-23 17:34:00,
2013-01-23 09:39:00,46.8,42.0,30.02,SW,225,0.4,1.8,83,0.00,,,0.00,WUHU216HW,2013-01-23 17:39:00,
2013-01-23 09:44:00,47.0,41.8,30.02,ESE,113,1.1,1.1,82,0.00,,,0.00,WUHU216HW,2013-01-23 17:44:00,
2013-01-23 09:49:00,47.3,42.1,30.02,ESE,113,0.9,1.1,82,0.00,,,0.00,WUHU216HW,2013-01-23 17:49:00,
2013-01-23 09:54:00,47.5,42.3,30.02,East,90,2.2,2.2,82,0.00,,,0.00,WUHU216HW,2013-01-23 17:54:00,
2013-01-23 09:59:00,47.9,42.7,30.02,ESE,113,2.0,2.9,82,0.00,,,0.00,WUHU216HW,2013-01-23 17:59:00,
2013-01-23 10:04:00,48.1,42.5,30.03,East,90,1.3,3.4,81,0.00,,,0.00,WUHU216HW,2013-01-23 18:04:00,
2013-01-23 10:09:00,48.4,43.1,30.02,NE,45,1.1,3.4,82,0.00,,,0.00,WUHU216HW,2013-01-23 18:09:00,
2013-01-23 10:14:00,48.6,43.3,30.03,NE,45,1.3,2.5,82,0.00,,,0.00,WUHU216HW,2013-01-23 18:14:00,
2013-01-23 10:19:00,49.0,43.7,30.02,NNW,338,1.1,2.2,82,0.00,,,0.00,WUHU216HW,2013-01-23 18:19:00,
2013-01-23 10:24:00,49.1,43.5,30.02,NW,315,1.6,2.2,81,0.00,,,0.00,WUHU216HW,2013-01-23 18:24:00,
2013-01-23 10:29:00,49.3,43.7,30.02,NNW,338,0.0,2.0,81,0.00,,,0.00,WUHU216HW,2013-01-23 18:29:00,
2013-01-23 10:34:00,49.7,44.0,30.02,North,0,0.4,1.6,81,0.00,,,0.00,WUHU216HW,2013-01-23 18:34:00,
2013-01-23 10:39:00,49.9,43.9,30.03,WNW,293,0.4,1.3,80,0.00,,,0.00,WUHU216HW,2013-01-23 18:39:00,
2013-01-23 10:44:00,50.0,44.1,30.03,WSW,248,1.8,1.8,80,0.00,,,0.00,WUHU216HW,2013-01-23 18:44:00,
2013-01-23 10:49:00,50.2,44.3,30.03,NW,315,2.7,2.7,80,0.00,,,0.00,WUHU216HW,2013-01-23 18:49:00,
2013-01-23 10:54:00,50.4,44.5,30.03,North,0,2.2,2.7,80,0.00,,,0.00,WUHU216HW,2013-01-23 18:54:00,
2013-01-23 10:59:00,50.8,44.8,30.03,North,0,1.1,2.2,80,0.00,,,0.00,WUHU216HW,2013-01-23 18:59:00,
2013-01-23 11:04:00,50.8,44.5,30.03,North,0,1.1,1.3,79,0.00,,,0.00,WUHU216HW,2013-01-23 19:04:00,
2013-01-23 11:09:00,50.9,44.3,30.03,NW,315,0.0,2.5,78,0.00,,,0.00,WUHU216HW,2013-01-23 19:09:00,
2013-01-23 11:14:00,51.3,44.6,30.04,WSW,248,0.9,2.5,78,0.00,,,0.00,WUHU216HW,2013-01-23 19:14:00,
2013-01-23 11:19:00,51.3,44.6,30.03,North,0,0.0,2.2,78,0.00,,,0.00,WUHU216HW,2013-01-23 19:19:00,
2013-01-23 11:24:00,51.5,44.8,30.03,SSE,158,0.4,1.1,78,0.00,,,0.00,WUHU216HW,2013-01-23 19:24:00,
2013-01-23 11:29:00,51.7,45.0,30.03,SE,135,0.7,1.1,78,0.00,,,0.00,WUHU216HW,2013-01-23 19:29:00,
2013-01-23 11:34:00,51.8,45.2,30.03,SSW,203,1.3,1.3,78,0.00,,,0.00,WUHU216HW,2013-01-23 19:34:00,
2013-01-23 11:39:00,52.0,45.4,30.03,SSE,158,0.0,1.3,78,0.00,,,0.00,WUHU216HW,2013-01-23 19:39:00,
2013-01-23 11:44:00,52.2,45.5,30.02,WSW,248,1.1,1.1,78,0.00,,,0.00,WUHU216HW,2013-01-23 19:44:00,
2013-01-23 11:49:00,52.2,45.5,30.02,NNW,338,1.3,1.3,78,0.00,,,0.00,WUHU216HW,2013-01-23 19:49:00,
2013-01-23 11:54:00,52.6,45.9,30.02,SSW,203,0.9,1.3,78,0.00,,,0.00,WUHU216HW,2013-01-23 19:54:00,
2013-01-23 11:59:00,52.7,45.7,30.02,WSW,248,1.1,1.3,77,0.00,,,0.00,WUHU216HW,2013-01-23 19:59:00,
2013-01-23 12:04:00,52.9,45.9,30.02,WSW,248,2.5,2.5,77,0.00,,,0.00,WUHU216HW,2013-01-23 20:04:00,
2013-01-23 12:09:00,52.9,45.9,30.02,SSW,203,1.1,2.5,77,0.00,,,0.00,WUHU216HW,2013-01-23 20:09:00,
2013-01-23 12:14:00,53.1,45.7,30.02,North,0,0.2,1.6,76,0.00,,,0.00,WUHU216HW,2013-01-23 20:14:00,
2013-01-23 12:19:00,53.3,45.9,30.02,SSE,158,0.0,1.6,76,0.00,,,0.00,WUHU216HW,2013-01-23 20:19:00,
2013-01-23 12:24:00,53.3,45.9,30.02,West,270,1.1,1.1,76,0.00,,,0.00,WUHU216HW,2013-01-23 20:24:00,
2013-01-23 12:29:00,53.3,45.9,30.03,SW,225,0.9,2.5,76,0.00,,,0.00,WUHU216HW,2013-01-23 20:29:00,
2013-01-23 12:34:00,53.6,46.3,30.03,SW,225,0.4,2.5,76,0.00,,,0.00,WUHU216HW,2013-01-23 20:34:00,
2013-01-23 12:39:00,53.6,46.3,30.02,WSW,248,0.4,1.1,76,0.00,,,0.00,WUHU216HW,2013-01-23 20:39:00,
2013-01-23 12:44:00,53.6,46.6,30.02,ENE,68,1.8,1.8,77,0.00,,,0.00,WUHU216HW,2013-01-23 20:44:00,
2013-01-23 12:49:00,53.8,46.5,30.01,West,270,1.8,1.8,76,0.00,,,0.00,WUHU216HW,2013-01-23 20:49:00,
2013-01-23 12:54:00,53.8,46.5,30.01,NW,315,2.5,2.5,76,0.00,,,0.00,WUHU216HW,2013-01-23 20:54:00,
2013-01-23 12:59:00,54.0,47.0,30.01,North,0,0.0,2.5,77,0.00,,,0.00,WUHU216HW,2013-01-23 20:59:00,
2013-01-23 13:04:00,53.8,46.8,30.01,NNW,338,0.0,1.8,77,0.00,,,0.00,WUHU216HW,2013-01-23 21:04:00,
2013-01-23 13:09:00,53.8,46.8,30.02,ENE,68,1.3,1.3,77,0.00,,,0.00,WUHU216HW,2013-01-23 21:09:00,
2013-01-23 13:14:00,53.8,46.8,30.02,ENE,68,0.9,2.0,77,0.00,,,0.00,WUHU216HW,2013-01-23 21:14:00,
2013-01-23 13:19:00,53.6,46.6,30.02,NW,315,0.2,2.0,77,0.01,,,0.01,WUHU216HW,2013-01-23 21:19:00,
2013-01-23 13:24:00,53.6,47.0,30.02,WSW,248,1.8,2.5,78,0.01,,,0.01,WUHU216HW,2013-01-23 21:24:00,
2013-01-23 13:29:00,53.5,46.8,30.02,West,270,1.8,2.5,78,0.01,,,0.01,WUHU216HW,2013-01-23 21:29:00,
2013-01-23 13:34:00,53.3,46.6,30.02,WNW,293,1.3,1.8,78,0.01,,,0.01,WUHU216HW,2013-01-23 21:34:00,
2013-01-23 13:39:00,53.3,47.0,30.02,NNW,338,0.0,1.8,79,0.02,,,0.02,WUHU216HW,2013-01-23 21:39:00,
2013-01-23 13:44:00,53.3,47.0,30.02,NNW,338,0.9,1.8,79,0.02,,,0.02,WUHU216HW,2013-01-23 21:44:00,
2013-01-23 13:49:00,53.1,46.8,30.02,NW,315,0.4,2.0,79,0.03,,,0.03,WUHU216HW,2013-01-23 21:49:00,
2013-01-23 13:54:00,52.9,47.0,30.02,West,270,0.0,2.0,80,0.03,,,0.03,WUHU216HW,2013-01-23 21:54:00,
2013-01-23 13:59:00,52.9,47.0,30.02,ESE,113,0.4,1.1,80,0.03,,,0.03,WUHU216HW,2013-01-23 21:59:00,
2013-01-23 14:04:00,52.7,46.8,30.02,NNW,338,0.2,1.1,80,0.04,,,0.04,WUHU216HW,2013-01-23 22:04:00,
2013-01-23 14:09:00,52.7,46.8,30.01,NNW,338,0.0,0.7,80,0.04,,,0.04,WUHU216HW,2013-01-23 22:09:00,
2013-01-23 14:14:00,52.6,46.6,30.01,WNW,293,1.8,1.8,80,0.04,,,0.04,WUHU216HW,2013-01-23 22:14:00,
2013-01-23 14:19:00,52.6,46.9,30.01,West,270,0.0,1.8,81,0.03,,,0.04,WUHU216HW,2013-01-23 22:19:00,
2013-01-23 14:24:00,52.6,46.9,30.01,ESE,113,0.9,1.3,81,0.03,,,0.04,WUHU216HW,2013-01-23 22:24:00,
2013-01-23 14:29:00,52.4,46.7,30.00,ESE,113,2.7,2.7,81,0.03,,,0.04,WUHU216HW,2013-01-23 22:29:00,
2013-01-23 14:34:00,51.8,46.5,30.01,ESE,113,4.0,5.1,82,0.04,,,0.05,WUHU216HW,2013-01-23 22:34:00,
2013-01-23 14:39:00,51.7,46.4,30.01,ESE,113,1.8,5.1,82,0.03,,,0.05,WUHU216HW,2013-01-23 22:39:00,
2013-01-23 14:44:00,51.7,46.6,30.01,ESE,113,0.0,4.7,83,0.03,,,0.05,WUHU216HW,2013-01-23 22:44:00,
2013-01-23 14:49:00,51.8,46.8,30.00,WSW,248,1.1,2.0,83,0.02,,,0.05,WUHU216HW,2013-01-23 22:49:00,
2013-01-23 14:54:00,51.8,46.8,30.00,South,180,0.7,1.1,83,0.02,,,0.05,WUHU216HW,2013-01-23 22:54:00,
2013-01-23 14:59:00,52.0,47.0,30.00,ESE,113,3.6,3.6,83,0.02,,,0.05,WUHU216HW,2013-01-23 22:59:00,
2013-01-23 15:04:00,52.0,47.4,30.00,ESE,113,2.9,3.6,84,0.01,,,0.05,WUHU216HW,2013-01-23 23:04:00,
2013-01-23 15:09:00,52.0,47.4,30.00,ESE,113,2.9,3.6,84,0.01,,,0.05,WUHU216HW,2013-01-23 23:09:00,
2013-01-23 15:14:00,51.8,47.2,30.00,SSE,158,0.2,3.6,84,0.01,,,0.05,WUHU216HW,2013-01-23 23:14:00,
2013-01-23 15:19:00,51.8,47.2,30.00,West,270,1.1,2.7,84,0.01,,,0.05,WUHU216HW,2013-01-23 23:19:00,
2013-01-23 15:24:00,51.8,47.2,30.00,West,270,0.4,2.5,84,0.01,,,0.05,WUHU216HW,2013-01-23 23:24:00,
2013-01-23 15:29:00,52.0,47.4,30.00,WNW,293,2.0,2.0,84,0.01,,,0.05,WUHU216HW,2013-01-23 23:29:00,
2013-01-23 15:34:00,51.8,47.2,30.00,WSW,248,2.2,2.9,84,0.00,,,0.05,WUHU216HW,2013-01-23 23:34:00,
2013-01-23 15:39:00,51.8,47.7,30.00,North,0,2.5,2.9,86,0.00,,,0.05,WUHU216HW,2013-01-23 23:39:00,
2013-01-23 15:44:00,51.8,47.4,30.00,North,0,1.8,2.9,85,0.00,,,0.05,WUHU216HW,2013-01-23 23:44:00,
2013-01-23 15:49:00,51.7,47.3,30.00,North,0,0.2,1.8,85,0.00,,,0.05,WUHU216HW,2013-01-23 23:49:00,
2013-01-23 15:54:00,51.7,47.9,30.00,NNE,23,1.1,2.5,87,0.00,,,0.05,WUHU216HW,2013-01-23 23:54:00,
2013-01-23 15:59:00,51.7,47.3,30.00,West,270,1.1,2.5,85,0.00,,,0.05,WUHU216HW,2013-01-23 23:59:00,
2013-01-23 16:04:00,51.7,47.3,30.01,West,270,2.5,2.9,85,0.00,,,0.05,WUHU216HW,2013-01-24 00:04:00,
2013-01-23 16:09:00,51.7,47.3,30.01,NW,315,2.7,3.8,85,0.00,,,0.05,WUHU216HW,2013-01-24 00:09:00,
2013-01-23 16:14:00,51.5,47.3,30.01,WSW,248,2.7,7.6,86,0.00,,,0.05,WUHU216HW,2013-01-24 00:14:00,
2013-01-23 16:19:00,51.5,47.1,30.02,WSW,248,2.7,7.6,85,0.00,,,0.05,WUHU216HW,2013-01-24 00:19:00,
2013-01-23 16:24:00,51.3,46.9,30.02,West,270,1.6,4.7,85,0.00,,,0.05,WUHU216HW,2013-01-24 00:24:00,
2013-01-23 16:29:00,51.1,46.7,30.03,WSW,248,0.0,4.7,85,0.00,,,0.05,WUHU216HW,2013-01-24 00:29:00,
2013-01-23 16:34:00,51.1,46.7,30.02,SSE,158,0.9,1.1,85,0.00,,,0.05,WUHU216HW,2013-01-24 00:34:00,
2013-01-23 16:39:00,51.1,46.5,30.02,SSW,203,1.8,2.5,84,0.00,,,0.05,WUHU216HW,2013-01-24 00:39:00,
2013-01-23 16:44:00,51.1,46.5,30.02,SSW,203,0.7,2.5,84,0.00,,,0.05,WUHU216HW,2013-01-24 00:44:00,
2013-01-23 16:49:00,51.1,46.5,30.02,SW,225,1.8,1.8,84,0.00,,,0.05,WUHU216HW,2013-01-24 00:49:00,
2013-01-23 16:54:00,50.9,46.3,30.02,East,90,0.2,1.8,84,0.00,,,0.05,WUHU216HW,2013-01-24 00:54:00,
2013-01-23 16:59:00,50.8,46.1,30.02,SE,135,0.7,1.3,84,0.00,,,0.05,WUHU216HW,2013-01-24 00:59:00,
2013-01-23 17:04:00,50.8,46.1,30.02,West,270,0.0,1.1,84,0.00,,,0.05,WUHU216HW,2013-01-24 01:04:00,
2013-01-23 17:09:00,50.6,45.9,30.02,ESE,113,0.4,0.9,84,0.00,,,0.05,WUHU216HW,2013-01-24 01:09:00,
2013-01-23 17:14:00,50.4,45.7,30.03,SSE,158,2.5,2.5,84,0.00,,,0.05,WUHU216HW,2013-01-24 01:14:00,
2013-01-23 17:19:00,50.4,45.7,30.03,SSE,158,3.4,3.4,84,0.00,,,0.05,WUHU216HW,2013-01-24 01:19:00,
2013-01-23 17:24:00,50.2,45.6,30.04,South,180,2.2,3.4,84,0.00,,,0.05,WUHU216HW,2013-01-24 01:24:00,
2013-01-23 17:29:00,50.2,45.6,30.03,SSW,203,1.3,3.4,84,0.00,,,0.05,WUHU216HW,2013-01-24 01:29:00,
2013-01-23 17:34:00,50.0,45.6,30.04,South,180,2.5,2.5,85,0.00,,,0.05,WUHU216HW,2013-01-24 01:34:00,
2013-01-23 17:39:00,50.0,45.6,30.04,WSW,248,0.0,2.5,85,0.00,,,0.05,WUHU216HW,2013-01-24 01:39:00,
2013-01-23 17:44:00,50.0,45.6,30.04,WSW,248,0.9,2.0,85,0.00,,,0.05,WUHU216HW,2013-01-24 01:44:00,
2013-01-23 17:49:00,50.0,45.6,30.04,South,180,0.2,1.1,85,0.00,,,0.05,WUHU216HW,2013-01-24 01:49:00,
2013-01-23 17:54:00,50.0,45.6,30.04,ESE,113,2.0,2.0,85,0.00,,,0.05,WUHU216HW,2013-01-24 01:54:00,
2013-01-23 17:59:00,50.0,45.6,30.04,ESE,113,0.7,2.0,85,0.00,,,0.05,WUHU216HW,2013-01-24 01:59:00,
2013-01-23 18:04:00,49.9,45.5,30.05,ESE,113,3.8,3.8,85,0.00,,,0.05,WUHU216HW,2013-01-24 02:04:00,
2013-01-23 18:09:00,49.7,45.3,30.05,SSW,203,1.8,4.0,85,0.00,,,0.05,WUHU216HW,2013-01-24 02:09:00,
2013-01-23 18:14:00,49.7,45.3,30.06,South,180,1.6,4.0,85,0.00,,,0.05,WUHU216HW,2013-01-24 02:14:00,
2013-01-23 18:19:00,49.7,45.3,30.06,SW,225,0.4,2.5,85,0.00,,,0.05,WUHU216HW,2013-01-24 02:19:00,
2013-01-23 18:24:00,49.7,45.3,30.06,SSE,158,1.3,2.5,85,0.00,,,0.05,WUHU216HW,2013-01-24 02:24:00,
2013-01-23 18:29:00,49.7,45.3,30.05,WSW,248,0.2,2.0,85,0.00,,,0.05,WUHU216HW,2013-01-24 02:29:00,
2013-01-23 18:35:00,49.9,45.5,30.05,SSE,158,2.7,2.9,85,0.00,,,0.05,WUHU216HW,2013-01-24 02:35:00,
2013-01-23 18:40:00,49.9,45.5,30.04,West,270,0.9,2.9,85,0.00,,,0.05,WUHU216HW,2013-01-24 02:40:00,
2013-01-23 18:45:00,49.9,45.5,30.05,West,270,0.7,2.2,85,0.00,,,0.05,WUHU216HW,2013-01-24 02:45:00,
2013-01-23 18:50:00,49.9,45.5,30.06,SSE,158,1.8,1.8,85,0.00,,,0.05,WUHU216HW,2013-01-24 02:50:00,
2013-01-23 18:55:00,49.9,45.5,30.06,SE,135,1.1,1.8,85,0.00,,,0.05,WUHU216HW,2013-01-24 02:55:00,
2013-01-23 19:00:00,49.9,45.5,30.05,ESE,113,0.0,1.1,85,0.00,,,0.05,WUHU216HW,2013-01-24 03:00:00,
2013-01-23 19:05:00,49.9,45.5,30.06,ESE,113,1.1,1.1,85,0.00,,,0.05,WUHU216HW,2013-01-24 03:05:00,
2013-01-23 19:10:00,49.9,45.5,30.05,SE,135,2.0,2.0,85,0.00,,,0.05,WUHU216HW,2013-01-24 03:10:00,
2013-01-23 19:15:00,49.9,45.5,30.06,NNE,23,0.0,2.0,85,0.00,,,0.05,WUHU216HW,2013-01-24 03:15:00,
2013-01-23 19:20:00,49.9,45.5,30.06,North,0,0.7,1.6,85,0.00,,,0.05,WUHU216HW,2013-01-24 03:20:00,
2013-01-23 19:25:00,49.9,45.5,30.05,East,90,0.7,0.7,85,0.00,,,0.05,WUHU216HW,2013-01-24 03:25:00,
2013-01-23 19:30:00,49.9,45.5,30.05,ESE,113,1.1,3.4,85,0.00,,,0.05,WUHU216HW,2013-01-24 03:30:00,
2013-01-23 19:35:00,49.9,45.5,30.05,ESE,113,2.5,3.4,85,0.00,,,0.05,WUHU216HW,2013-01-24 03:35:00,
2013-01-23 19:40:00,49.7,45.3,30.06,SE,135,1.1,2.5,85,0.00,,,0.05,WUHU216HW,2013-01-24 03:40:00,
2013-01-23 19:45:00,49.9,45.5,30.06,SE,135,2.5,2.5,85,0.00,,,0.05,WUHU216HW,2013-01-24 03:45:00,
2013-01-23 19:50:00,49.9,45.5,30.07,SE,135,1.1,2.9,85,0.00,,,0.05,WUHU216HW,2013-01-24 03:50:00,
2013-01-23 19:55:00,49.9,45.5,30.06,South,180,1.6,2.9,85,0.00,,,0.05,WUHU216HW,2013-01-24 03:55:00,
2013-01-23 20:00:00,50.0,45.9,30.06,SSE,158,2.0,2.0,86,0.00,,,0.05,WUHU216HW,2013-01-24 04:00:00,
2013-01-23 20:05:00,50.0,45.9,30.07,SSE,158,1.3,2.0,86,0.00,,,0.05,WUHU216HW,2013-01-24 04:05:00,
2013-01-23 20:11:00,50.0,45.9,30.06,SSW,203,0.0,1.6,86,0.01,,,0.06,WUHU216HW,2013-01-24 04:11:00,
2013-01-23 20:16:00,50.2,46.1,30.06,West,270,0.2,1.1,86,0.01,,,0.06,WUHU216HW,2013-01-24 04:16:00,
2013-01-23 20:21:00,50.2,46.1,30.06,West,270,0.0,1.1,86,0.01,,,0.06,WUHU216HW,2013-01-24 04:21:00,
2013-01-23 20:26:00,50.2,46.1,30.06,East,90,0.7,1.1,86,0.01,,,0.06,WUHU216HW,2013-01-24 04:26:00,
2013-01-23 20:31:00,50.4,46.3,30.06,NNW,338,0.2,1.1,86,0.01,,,0.06,WUHU216HW,2013-01-24 04:31:00,
2013-01-23 20:36:00,50.2,46.1,30.06,NNE,23,2.0,2.0,86,0.01,,,0.06,WUHU216HW,2013-01-24 04:36:00,
2013-01-23 20:41:00,50.4,46.3,30.05,North,0,3.1,4.3,86,0.01,,,0.06,WUHU216HW,2013-01-24 04:41:00,
2013-01-23 20:46:00,50.2,46.5,30.06,NNE,23,2.5,4.3,87,0.01,,,0.06,WUHU216HW,2013-01-24 04:46:00,
2013-01-23 20:51:00,50.2,46.7,30.06,NNE,23,3.4,4.0,88,0.01,,,0.06,WUHU216HW,2013-01-24 04:51:00,
2013-01-23 20:56:00,50.2,46.5,30.05,North,0,1.8,4.0,87,0.01,,,0.06,WUHU216HW,2013-01-24 04:56:00,
2013-01-23 21:00:00,50.0,46.3,30.06,NNE,23,2.9,3.4,87,0.01,,,0.06,WUHU216HW,2013-01-24 05:00:00,
2013-01-23 21:01:00,50.0,46.3,30.06,NNE,23,2.9,3.4,87,0.01,,,0.06,WUHU216HW,2013-01-24 05:01:00,
2013-01-23 21:03:00,50.0,46.3,30.06,NE,45,3.1,3.1,87,0.01,,,0.06,WUHU216HW,2013-01-24 05:03:00,
2013-01-23 21:08:00,50.0,46.5,30.06,NE,45,5.8,5.8,88,0.00,,,0.06,WUHU216HW,2013-01-24 05:08:00,
2013-01-23 21:13:00,50.2,46.7,30.06,East,90,2.5,5.8,88,0.00,,,0.06,WUHU216HW,2013-01-24 05:13:00,
2013-01-23 21:18:00,50.2,46.5,30.06,ENE,68,1.3,5.4,87,0.00,,,0.06,WUHU216HW,2013-01-24 05:18:00,
2013-01-23 21:23:00,50.2,46.5,30.06,North,0,0.7,3.6,87,0.00,,,0.06,WUHU216HW,2013-01-24 05:23:00,
2013-01-23 21:28:00,50.2,46.1,30.06,ENE,68,1.8,2.9,86,0.00,,,0.06,WUHU216HW,2013-01-24 05:28:00,
2013-01-23 21:33:00,50.2,46.5,30.07,NE,45,0.9,3.4,87,0.00,,,0.06,WUHU216HW,2013-01-24 05:33:00,
2013-01-23 21:38:00,50.0,45.9,30.07,NE,45,3.4,3.4,86,0.00,,,0.06,WUHU216HW,2013-01-24 05:38:00,
2013-01-23 21:43:00,50.0,45.9,30.07,ENE,68,3.4,3.6,86,0.00,,,0.06,WUHU216HW,2013-01-24 05:43:00,
2013-01-23 21:48:00,49.9,45.8,30.07,ENE,68,4.9,5.1,86,0.00,,,0.06,WUHU216HW,2013-01-24 05:48:00,
2013-01-23 21:53:00,49.7,45.6,30.07,East,90,3.4,5.4,86,0.00,,,0.06,WUHU216HW,2013-01-24 05:53:00,
2013-01-23 21:58:00,49.5,45.1,30.07,East,90,4.0,6.7,85,0.00,,,0.06,WUHU216HW,2013-01-24 05:58:00,
2013-01-23 22:03:00,49.3,45.3,30.07,ENE,68,5.1,6.7,86,0.00,,,0.06,WUHU216HW,2013-01-24 06:03:00,
2013-01-23 22:08:00,49.3,45.3,30.07,East,90,3.6,6.3,86,0.00,,,0.06,WUHU216HW,2013-01-24 06:08:00,
2013-01-23 22:13:00,49.3,45.5,30.07,ENE,68,2.5,5.8,87,0.01,,,0.07,WUHU216HW,2013-01-24 06:13:00,
2013-01-23 22:18:00,49.3,45.5,30.07,ESE,113,1.6,4.5,87,0.01,,,0.07,WUHU216HW,2013-01-24 06:18:00,
2013-01-23 22:23:00,49.3,45.5,30.07,NNE,23,2.0,4.5,87,0.01,,,0.07,WUHU216HW,2013-01-24 06:23:00,
2013-01-23 22:28:00,49.3,45.5,30.07,ENE,68,5.4,5.4,87,0.01,,,0.07,WUHU216HW,2013-01-24 06:28:00,
2013-01-23 22:33:00,49.3,45.5,30.07,ENE,68,5.4,5.4,87,0.01,,,0.07,WUHU216HW,2013-01-24 06:33:00,
2013-01-23 22:38:00,49.3,45.5,30.07,ENE,68,4.0,5.4,87,0.01,,,0.07,WUHU216HW,2013-01-24 06:38:00,
2013-01-23 22:43:00,49.3,45.5,30.07,ENE,68,3.1,4.5,87,0.01,,,0.07,WUHU216HW,2013-01-24 06:43:00,
2013-01-23 22:48:00,49.3,45.5,30.07,ENE,68,1.8,3.8,87,0.01,,,0.07,WUHU216HW,2013-01-24 06:48:00,
2013-01-23 22:53:00,49.3,45.5,30.08,East,90,3.6,3.8,87,0.01,,,0.07,WUHU216HW,2013-01-24 06:53:00,
2013-01-23 22:58:00,49.3,45.5,30.08,ENE,68,2.7,3.6,87,0.01,,,0.07,WUHU216HW,2013-01-24 06:58:00,
2013-01-23 23:04:00,49.3,45.5,30.08,ENE,68,4.0,4.0,87,0.01,,,0.07,WUHU216HW,2013-01-24 07:04:00,
2013-01-23 23:09:00,49.3,45.5,30.08,ENE,68,3.4,4.0,87,0.00,,,0.07,WUHU216HW,2013-01-24 07:09:00,
2013-01-23 23:14:00,49.3,45.9,30.08,ENE,68,3.4,4.0,88,0.00,,,0.07,WUHU216HW,2013-01-24 07:14:00,
2013-01-23 23:19:00,49.3,45.5,30.09,NE,45,2.5,4.3,87,0.00,,,0.07,WUHU216HW,2013-01-24 07:19:00,
2013-01-23 23:24:00,49.3,45.5,30.09,East,90,1.1,4.3,87,0.00,,,0.07,WUHU216HW,2013-01-24 07:24:00,
2013-01-23 23:29:00,49.5,45.7,30.08,NE,45,5.8,5.8,87,0.00,,,0.07,WUHU216HW,2013-01-24 07:29:00,
2013-01-23 23:34:00,49.5,45.7,30.08,ENE,68,3.6,5.8,87,0.00,,,0.07,WUHU216HW,2013-01-24 07:34:00,
2013-01-23 23:39:00,49.7,46.3,30.08,ENE,68,3.4,4.7,88,0.01,,,0.08,WUHU216HW,2013-01-24 07:39:00,
2013-01-23 23:44:00,49.7,46.3,30.08,ENE,68,3.6,5.4,88,0.01,,,0.08,WUHU216HW,2013-01-24 07:44:00,
2013-01-23 23:49:00,49.7,46.3,30.08,NE,45,2.0,5.4,88,0.01,,,0.08,WUHU216HW,2013-01-24 07:49:00,
2013-01-23 23:54:00,49.7,45.9,30.08,ENE,68,0.4,4.5,87,0.01,,,0.08,WUHU216HW,2013-01-24 07:54:00,
2013-01-23 23:59:00,49.7,45.9,30.08,NNE,23,0.9,4.0,87,0.02,,,0.09,WUHU216HW,2013-01-24 07:59:00,